Find Starlink 32668

NORAD ID: 62212 Int'l Des: 2024-229 Owner: SPXS Country: US Constellation: starlink operational
LEOCIRCULAR

リアルタイム位置

3D地球を読み込み中...

Starlink 32668について

説明を読み込み中...

次回通過

Passes for default location (London). Set your location on the main map for personalized predictions.

高度履歴

Loading altitude history...

軌道要素

1 62212U 24229W 26121.55348551 .00021539 00000-0 78946-3 0 9997
2 62212 42.9981 328.9339 0000689 285.6802 74.3974 15.27600810 78682
Epoch: May 1, 2026 • Age: 10 hours

現在のステータス

高度 482.5 km
速度 7.63 km/s
衛星直下点 21.67°N, 149.26°E
打ち上げ日 Dec 4, 2024
運用期間 1.4 years
タイプ internet

技術仕様

分類 Payload
質量 730.00 kg
乾燥質量 700.00 kg
総質量 730.00 kg
長さ 0.30 m
直径 4.10 m
スパン 29.00 m
形状 Box + pan
製造者 SPXS
バスタイプ Starlink V2M
フェーズステータス In Orbit
所有者/国 SPXS/US

Most Searched